Regional Weather Roundup
Issued by NWS

Home | Current Version | Previous Version | Text Only | Print | Product List | Glossary On
Versions: 1 2 3 4 5 6 7 8 9 10 11 12 13 14 15 16 17 18 19 20 21 22 23 24 25 26 27 28 29 30 31 32 33 34 35 36 37 38 39 40 41 42 43 44 45 46 47 48 49 50
000
ASUS42 KKEY 031310
RWRKEY

FLORIDA REGIONAL WEATHER ROUNDUP FOR THE FLORIDA KEYS
NATIONAL WEATHER SERVICE KEY WEST FLORIDA
900 AM EDT SUN MAY 03 2015

...SOUTH FLORIDA AND THE KEYS...

CITY           SKY/WX    TMP DP  RH WIND       PRES   REMARKS
FORT MYERS     SUNNY     71  58  63 NE9       30.10R
SW REGIONAL AP SUNNY     71  58  63 E10       30.11R
NAPLES         SUNNY     72  57  59 NE10      30.09R
MIAMI          MOSUNNY   77  55  46 E16       30.09R
WEST KENDALL   SUNNY     76  57  51 E17       30.09R
HOMESTEAD      SUNNY     76  59  55 NE16G22   30.08R
MARATHON       MOSUNNY   78  63  59 E15       30.06R
BOCA CHICA NAS MOSUNNY   77  59  53 E17       30.06R
KEY WEST INTL  SUNNY     76  60  57 E15       30.06R

...INTERNATIONAL WEATHER...

CITY           SKY/WX    TMP DP  RH WIND       PRES   REMARKS
NASSAU BAHAMAS MOSUNNY   75  61  60 NE13      30.09R
CANCUN MEXICO  PTSUNNY   81  68  65 NE9       29.99R
COZUMEL MEXICO PTSUNNY   75  70  83 E3        29.98R

ADJACENT COASTAL WATERS...

STATION/POSITION TIME  SKY/WX   TEMP    WIND        PRES    WAVE
                                AIR SEA DIR/SP/G            HT/PER
                 (UTC)          (F)     (DEG/KT/KT) (MB)    (FT/S)
PULASKI SHOAL LI 1200            76      90/ 26/ 28 1016.2R
SAND KEY         1250            75      70/ 23/ 26 1017.3R
SOMBRERO KEY     1300            76      70/ 22/ 24 1017.9R
LONG KEY         1200            75 76   70/ 17/ 18 1018.3R
MOLASSES REEF    1300            75 79   70/ 22/ 23 1017.9R
FOWEY ROCKS      NOT AVBL

$$



USA.gov is the U.S. government's official web portal to all federal, state and local government web resources and services.